Theta_e
287 287 286 288 287 287 287 288 288 289 290 291 291 291 291 292 292 293 294 296 297 298 297 297 297 297 296 296 296 296 295 294 294 294 295 295 296 297 304 311 311 311 310 310 310 310 309 309 309 308 309 308 308 309 310 310 310 310 309 309 308 308
286 286 286 286 286 286 287 287 288 287 286 286 286 287 290 292 292 293 293 295 297 298 298 297 297 296 296 296 296 295 295 295 294 294 294 295 294 296 300 309 310 310 309 309 309 309 309 308 308 307 309 306 307 308 309 308 308 308 307 307 306 307
286 286 285 285 285 285 285 283 282 284 283 283 283 282 285 289 291 292 293 293 294 296 297 297 297 296 297 296 296 295 295 294 294 294 294 294 293 295 296 304 309 310 309 309 307 308 308 308 307 306 308 306 307 306 307 306 306 306 306 305 304 304
285 285 284 283 283 281 280 280 280 279 279 281 282 282 282 285 286 288 290 292 293 294 295 297 297 297 296 296 295 295 295 294 294 294 293 292 293 294 294 298 309 309 310 309 308 308 307 307 306 306 306 306 306 304 305 303 303 304 305 306 303 303
284 283 282 280 280 279 278 278 278 278 279 280 280 280 281 281 282 284 287 290 292 293 294 294 296 296 296 295 295 295 295 295 295 295 293 292 293 293 294 295 303 310 310 309 309 308 307 306 305 306 306 306 305 303 304 303 302 303 304 304 304 304
283 281 279 278 278 277 277 277 277 277 277 277 277 277 279 280 280 282 284 288 290 293 294 294 295 295 296 295 295 295 296 295 295 295 293 293 293 292 293 294 296 307 309 308 308 308 307 305 305 305 305 305 304 305 304 303 302 303 304 305 304 304
281 280 278 277 276 276 276 276 275 275 275 276 275 276 277 277 278 279 281 283 285 288 291 292 293 294 294 295 295 295 296 295 294 294 293 292 291 291 292 293 294 301 308 307 307 307 307 305 304 304 304 305 306 305 305 303 303 303 304 305 304 301
279 278 276 275 276 275 274 275 275 274 274 274 275 275 275 276 277 278 280 281 281 282 285 288 290 292 293 294 295 295 296 295 294 293 293 292 290 290 291 292 292 296 307 307 307 307 306 306 304 304 304 305 306 306 305 303 303 305 305 305 304 303
277 277 277 276 274 274 274 273 273 273 273 273 274 274 274 275 276 277 278 278 279 280 282 284 287 290 292 293 294 295 296 295 294 293 292 292 290 289 288 290 291 294 304 306 307 307 306 306 304 304 304 305 306 305 305 305 304 304 305 304 303 303
277 276 274 274 273 273 272 272 272 272 271 271 272 273 274 275 275 275 276 276 276 277 278 280 284 287 290 293 293 294 295 295 293 292 293 291 289 288 288 289 290 293 301 305 306 307 306 306 304 304 304 304 305 304 304 304 304 303 303 303 302 302
275 275 274 273 272 271 271 271 271 271 271 271 272 273 273 274 274 275 275 276 276 276 276 276 278 280 282 286 290 292 292 293 293 293 292 290 289 288 288 289 291 291 298 304 305 305 306 305 304 304 304 303 303 303 302 302 302 302 302 303 303 302
275 275 273 272 271 270 269 269 269 269 270 270 271 272 273 274 274 274 274 274 275 276 277 277 276 277 279 282 284 287 289 291 292 291 290 290 289 288 287 288 290 292 297 304 303 303 304 304 306 300 299 300 302 302 301 300 300 301 301 300 301 301
273 273 272 271 270 269 269 269 269 269 269 270 270 271 272 273 273 274 274 274 275 276 276 276 276 276 276 279 281 284 285 287 289 290 289 289 289 288 287 288 289 291 297 304 303 302 303 304 305 299 300 300 300 303 302 298 297 297 299 299 300 299
273 271 271 270 270 269 268 268 268 268 268 269 270 271 272 272 272 273 274 275 275 276 276 276 276 276 276 278 279 281 283 285 286 288 288 288 288 288 288 288 289 292 298 304 304 303 302 303 300 299 300 300 300 300 301 300 298 297 298 298 299 299
271 271 270 270 269 268 268 268 267 267 268 268 270 271 271 271 272 272 273 274 275 275 276 276 276 276 276 277 278 281 282 283 285 286 287 287 288 289 288 288 289 292 297 302 303 302 301 302 299 299 299 299 299 299 301 301 298 297 296 298 298 298
271 271 270 269 269 269 268 268 268 268 269 269 269 269 270 270 271 272 272 274 275 275 276 276 276 276 276 277 278 280 281 282 284 286 287 288 288 288 289 288 289 291 295 300 302 302 302 302 298 299 299 299 299 299 300 299 297 297 297 298 298 298
271 270 269 269 269 268 268 268 268 268 268 269 268 269 269 269 270 271 272 273 274 275 276 276 276 276 276 277 278 280 282 283 284 286 287 288 288 288 288 289 289 291 293 296 299 300 299 301 298 299 298 298 299 299 299 300 298 298 297 296 297 298
270 269 268 269 269 268 268 268 269 268 268 269 268 268 268 269 269 270 271 272 274 275 275 276 276 276 277 276 277 280 282 284 285 285 287 287 289 290 290 290 290 291 292 294 296 298 298 299 298 298 298 298 299 299 298 299 296 296 296 296 295 296
270 269 269 268 268 268 268 268 268 268 268 267 268 268 268 268 268 269 270 271 273 274 275 276 276 276 276 277 277 279 282 284 285 286 288 288 289 289 289 290 291 292 292 292 293 296 297 297 296 297 297 298 298 298 298 297 297 297 295 295 295 294
270 269 268 267 267 268 268 268 268 267 267 267 267 267 267 267 267 268 269 269 271 273 275 276 276 275 276 277 278 279 282 285 287 287 289 288 288 289 289 290 291 292 292 292 293 294 295 295 295 296 297 297 298 297 297 298 297 296 295 295 295 296
269 268 268 267 267 268 268 268 267 267 266 266 266 266 266 266 267 267 267 268 269 270 272 274 275 276 276 277 279 280 281 285 287 289 289 289 289 289 290 291 292 292 293 292 293 292 294 294 294 296 296 297 297 296 297 298 298 296 295 296 295 295
268 267 266 266 266 268 268 268 267 266 265 265 265 265 265 265 266 267 267 267 268 269 271 273 274 276 276 277 278 281 283 286 288 288 288 289 290 290 291 291 292 292 293 293 292 292 294 294 293 293 296 296 297 297 297 299 297 295 295 296 297 295
267 266 266 266 267 267 267 267 266 265 265 265 264 264 264 265 266 266 266 267 267 268 269 272 274 275 277 278 279 280 284 287 288 288 288 288 289 289 290 290 292 292 292 294 292 293 293 294 293 292 295 296 297 297 297 297 297 297 296 296 295 296
267 266 266 267 267 267 267 266 265 264 264 264 263 264 265 265 265 265 265 266 266 267 268 270 273 276 278 280 281 281 282 286 288 287 287 288 288 289 289 290 291 292 292 293 292 293 293 294 293 294 294 296 296 297 296 297 296 297 296 295 295 296
265 265 265 266 266 266 266 265 264 263 263 262 263 264 264 264 264 264 265 265 266 267 269 271 273 276 279 280 282 282 282 284 286 286 287 287 287 288 288 289 290 291 291 292 293 294 294 294 293 293 293 295 296 296 296 297 296 296 295 296 294 294
264 264 265 265 265 266 266 265 263 262 262 262 263 264 264 264 264 264 264 265 266 267 269 271 274 278 280 281 282 282 283 283 285 286 287 287 288 288 288 289 289 290 290 291 292 293 294 295 295 293 293 293 295 296 296 297 297 296 295 295 296 296
263 263 263 264 264 265 265 264 262 261 261 262 263 263 263 263 263 263 264 264 266 268 270 272 274 278 282 283 284 284 284 285 285 286 287 287 288 288 289 289 290 290 290 291 291 292 293 294 294 294 292 292 294 295 296 296 296 296 296 294 295 294
262 262 262 263 263 264 264 264 263 260 261 262 263 263 263 263 262 263 263 265 266 268 270 272 274 278 282 283 284 285 285 285 285 285 286 287 288 289 289 289 290 290 290 291 291 291 292 292 293 293 293 291 292 293 295 295 295 295 294 293 294 293
261 261 261 261 262 263 263 263 262 262 262 262 263 263 262 262 262 263 264 265 267 269 270 272 275 278 282 284 285 285 285 286 286 286 286 287 288 288 289 289 289 289 290 290 291 291 291 291 292 292 291 291 292 293 293 294 294 293 293 292 293 292
260 260 260 260 262 263 263 262 261 261 261 262 262 262 262 261 262 263 264 265 267 269 272 274 277 279 281 284 285 286 286 287 287 287 287 287 288 288 288 289 289 289 290 290 291 291 291 290 291 291 291 291 292 292 293 293 293 294 294 294 293 292
259 259 259 260 261 262 262 261 261 261 261 261 261 261 261 261 262 264 265 267 269 271 273 275 277 279 281 283 285 286 287 287 287 287 288 289 289 289 289 289 290 290 290 291 291 290 290 290 290 290 292 291 292 291 292 292 293 294 294 293 293 289
259 259 259 260 261 261 261 260 260 261 261 261 260 260 260 261 262 264 266 268 269 271 273 275 278 279 281 282 283 285 287 287 288 289 288 288 289 289 291 291 290 291 291 291 291 291 291 290 291 291 292 292 292 293 293 293 294 294 293 292 292 290
259 259 259 259 260 260 259 259 259 260 260 260 260 260 260 261 262 264 265 266 267 269 271 274 277 280 281 282 283 284 285 286 288 289 289 289 289 289 290 291 291 292 292 291 291 291 292 292 291 292 292 292 292 292 293 293 293 293 293 292 289 289
258 258 258 259 259 258 258 258 259 259 259 259 259 260 260 261 262 263 264 265 266 268 269 271 273 276 278 281 284 285 285 286 286 288 289 289 289 289 290 290 291 291 291 292 291 290 290 290 291 292 291 291 291 292 292 293 293 293 293 292 292 290
258 258 258 258 258 257 257 257 258 259 258 259 259 259 259 261 262 262 263 264 265 266 267 269 269 271 273 275 278 281 284 285 286 286 287 289 289 289 290 290 291 291 291 291 291 291 291 290 290 291 291 291 291 291 292 292 293 293 293 292 291 290
258 257 258 257 257 257 257 256 257 258 258 258 258 258 259 261 262 262 263 264 264 265 265 266 267 268 269 271 274 277 280 282 284 286 286 286 287 288 289 290 291 292 292 292 292 291 291 291 290 291 291 290 291 291 291 292 291 293 293 291 290 290
257 257 257 258 256 256 256 256 257 257 258 258 258 258 259 260 261 262 264 266 265 264 264 265 265 266 267 268 270 272 276 278 280 283 285 286 286 286 286 287 288 289 291 290 290 291 291 290 290 290 290 290 290 291 291 292 290 290 290 290 290 290
256 256 256 256 255 255 255 255 256 257 257 257 257 258 258 259 260 261 262 262 263 263 263 263 264 264 265 266 267 269 271 273 274 275 277 279 282 283 284 284 285 285 286 288 289 290 290 290 290 290 290 290 291 291 292 289 289 289 289 289 290 289
Wind_Speed
29 29 34 34 32 32 29 28 28 25 24 22 24 27 26 24 20 19 16 15 12 10 12 13 11 10 9 9 10 9 8 9 9 11 11 11 12 15 18 15 16 17 17 17 19 17 19 18 17 17 16 17 15 15 17 16 17 17 17 16 16 15
35 36 32 32 35 34 32 26 20 21 23 24 26 29 29 25 23 21 20 18 15 13 13 12 12 12 10 9 10 10 9 8 8 10 11 11 11 13 19 17 17 18 18 16 18 18 19 18 18 17 16 16 14 16 16 16 17 17 17 15 14 13
30 33 31 29 27 25 22 21 25 20 20 20 24 26 29 27 24 22 21 20 19 17 16 14 13 14 12 11 10 11 10 7 6 7 8 10 11 12 16 18 18 19 19 19 17 19 18 19 18 16 17 15 17 14 16 17 18 18 16 16 16 13
31 31 30 31 26 25 26 24 24 26 24 21 20 19 21 22 22 22 24 21 20 22 19 16 15 14 11 11 11 11 9 7 6 7 8 10 11 10 13 19 19 17 20 20 20 19 19 19 18 17 15 17 19 19 15 17 18 18 17 17 18 16
27 28 26 31 30 26 25 24 22 21 23 23 22 22 21 20 22 23 23 22 21 22 21 20 16 14 14 14 12 12 10 8 7 6 8 9 11 11 12 15 18 19 19 19 19 18 18 19 19 18 18 18 18 18 17 16 19 18 17 18 15 18
28 24 24 26 30 28 26 25 25 24 23 21 22 23 25 23 20 19 21 22 23 22 20 21 20 18 16 14 12 12 11 8 7 6 8 8 9 11 13 13 17 18 18 18 18 18 18 20 19 19 18 19 20 20 20 17 18 19 19 19 15 17
36 30 28 32 26 26 28 27 25 24 23 22 23 22 22 21 21 20 20 21 24 22 20 21 20 21 22 17 13 13 11 8 6 5 8 8 9 11 11 14 14 18 18 18 19 19 19 20 20 20 19 18 17 19 20 19 19 19 19 19 17 17
30 33 29 27 28 26 23 25 25 25 23 23 21 21 21 20 19 20 20 18 20 21 23 21 20 21 22 21 17 14 12 8 6 6 7 6 10 11 11 13 14 17 18 19 20 19 19 19 20 21 20 20 19 18 19 19 19 17 18 19 14 17
34 31 32 31 25 26 26 25 24 23 23 24 23 20 20 20 18 20 20 20 20 20 21 21 21 20 21 20 20 14 10 8 6 6 7 7 8 10 10 13 14 16 17 20 20 20 19 19 19 19 20 21 19 18 17 18 19 19 19 12 13 14
34 33 29 29 30 26 25 25 25 24 23 23 22 21 20 18 19 20 19 19 19 19 20 20 21 21 20 18 16 15 14 9 7 8 7 6 9 10 10 13 14 16 16 17 20 19 17 19 19 19 20 20 20 19 19 18 18 19 19 18 16 14
31 35 36 31 28 28 28 26 24 23 23 22 22 22 22 20 20 20 20 20 20 19 17 18 18 19 20 21 19 16 16 13 8 7 7 7 8 10 9 12 14 16 19 17 18 19 18 18 18 17 18 19 19 19 18 18 18 18 18 19 18 14
33 32 29 34 31 31 29 26 24 23 23 24 23 23 23 22 21 21 21 21 20 20 20 18 17 18 20 20 21 20 17 15 11 10 10 9 9 10 11 11 14 16 19 17 17 17 17 17 15 19 27 23 18 18 16 15 16 16 16 15 17 16
32 35 33 31 32 31 29 27 26 24 24 23 23 24 23 23 23 23 22 23 23 22 20 21 19 17 19 20 19 18 18 18 15 13 12 11 10 11 11 11 14 17 17 18 18 18 18 17 16 25 26 28 28 22 18 16 15 14 14 14 16 16
36 36 34 33 33 32 28 27 25 24 24 24 24 23 23 23 24 25 25 24 24 22 23 21 20 21 19 20 20 18 17 18 17 15 13 12 12 12 9 12 14 17 17 17 18 20 19 18 21 27 28 29 30 25 19 16 15 16 15 13 14 15
32 34 33 32 28 28 30 29 26 24 24 26 25 23 24 25 24 25 25 24 24 23 19 20 22 22 20 19 19 17 16 17 18 17 15 15 13 12 11 12 14 17 16 17 18 18 17 16 22 26 28 28 28 29 24 16 16 16 16 16 16 14
30 31 31 28 30 30 28 26 27 27 25 25 25 24 25 25 26 25 25 24 23 19 22 21 21 19 23 19 19 18 17 17 18 16 14 13 13 13 13 11 15 16 16 16 17 17 16 16 21 27 27 26 27 26 23 15 17 16 17 17 17 15
34 33 31 31 31 29 28 27 25 27 28 24 25 24 24 25 25 25 24 24 22 21 19 18 20 20 19 19 18 17 16 16 16 15 13 12 13 13 13 12 14 15 14 13 14 15 15 14 24 26 28 28 27 27 24 15 14 14 15 15 15 16
33 32 32 31 29 28 28 27 28 25 23 24 25 25 24 24 24 24 24 24 22 21 20 20 18 20 20 18 18 18 16 15 14 14 13 12 13 12 12 12 13 14 14 12 12 14 15 14 25 27 27 28 28 27 17 13 14 14 14 14 14 14
31 31 29 29 29 28 27 27 24 25 27 26 25 24 24 23 23 23 22 22 22 20 19 16 18 19 18 17 17 17 16 14 13 12 10 11 12 12 12 13 12 11 11 11 9 12 13 12 21 26 27 27 28 22 15 14 12 12 13 14 13 13
30 31 29 29 28 27 26 24 25 28 27 26 25 23 23 22 23 22 22 22 22 22 20 18 18 19 18 17 17 16 15 13 12 11 9 10 11 11 12 11 11 10 9 11 12 11 12 11 18 26 26 28 28 23 16 14 13 13 13 12 12 11
31 30 29 29 28 27 25 27 29 26 25 24 24 24 24 23 23 23 23 23 22 22 21 19 18 18 17 18 16 14 15 14 12 10 8 9 9 10 10 11 10 9 8 9 11 15 13 10 13 23 23 26 26 22 14 14 12 13 13 13 13 12
30 30 28 28 29 26 27 29 25 25 24 24 23 23 23 23 24 24 23 23 22 20 20 19 19 18 17 16 15 14 14 13 9 7 7 8 8 8 9 10 9 10 9 8 9 9 12 12 11 17 24 24 24 25 15 12 14 14 14 13 13 12
27 28 27 23 25 26 25 24 23 23 23 24 23 24 23 24 24 24 24 22 22 21 21 19 18 17 16 14 13 14 14 9 7 5 6 8 8 8 9 10 9 9 9 8 9 11 11 11 11 13 22 23 25 26 22 13 15 14 14 13 12 12
28 30 28 25 23 22 22 24 25 23 23 23 24 26 24 23 23 22 23 23 22 21 20 19 18 16 14 13 12 12 13 9 6 6 7 8 8 9 10 9 8 8 8 8 9 10 12 13 17 13 20 24 25 25 28 17 15 14 13 14 13 13
27 30 29 25 25 22 22 24 25 24 23 24 27 25 23 23 23 23 23 22 22 21 20 18 18 16 12 12 12 12 12 10 8 8 8 9 9 9 10 9 8 7 7 8 8 9 11 11 13 18 17 23 26 27 27 25 16 18 14 15 15 15
25 27 28 26 23 21 18 18 22 24 26 27 24 23 23 22 22 22 22 20 20 19 18 16 16 15 12 13 12 11 11 11 10 9 8 8 8 8 8 7 7 7 8 9 8 8 9 10 11 15 20 20 27 26 27 27 22 19 14 14 13 13
28 28 30 27 27 24 21 20 22 27 28 26 24 25 24 24 23 21 21 21 19 18 16 15 14 15 12 11 10 10 9 9 9 9 8 7 8 8 8 7 7 8 8 8 8 8 8 9 10 10 16 22 24 26 26 25 24 21 21 14 11 12
24 25 28 30 27 24 19 21 22 25 26 25 23 23 23 23 23 23 21 19 17 16 16 16 15 15 13 13 10 10 10 10 9 9 8 7 7 7 8 7 7 7 7 8 8 8 8 8 9 9 11 14 17 19 23 25 25 22 20 17 12 15
25 27 29 30 27 23 22 24 22 22 22 23 23 24 24 23 22 22 19 18 16 15 14 13 11 11 11 8 8 8 9 9 9 8 8 8 7 7 7 7 7 6 7 8 8 7 7 8 9 9 9 10 11 12 14 17 18 21 19 14 10 13
25 27 29 27 25 24 26 26 25 24 23 23 24 24 24 22 19 18 18 19 15 12 11 11 15 14 10 9 7 7 8 8 8 8 9 8 8 8 7 7 7 7 7 7 7 7 7 8 8 9 10 10 11 11 11 12 13 14 13 13 11 10
26 26 26 26 24 23 23 25 26 23 24 24 24 24 23 21 22 19 17 16 14 12 10 10 11 10 10 10 9 9 9 9 8 9 9 9 8 8 8 7 7 7 6 7 7 8 8 8 9 9 8 8 11 11 11 11 12 12 11 12 13 8
25 26 26 24 22 22 23 24 23 23 22 23 22 23 22 22 19 17 17 16 15 15 15 12 10 9 9 9 10 10 9 11 15 12 10 9 11 15 14 11 8 6 6 7 7 8 9 9 6 9 12 13 16 17 18 15 15 13 11 13 18 14
24 25 25 23 21 22 24 24 23 23 23 24 23 23 22 20 18 17 16 16 15 18 17 15 14 12 10 9 9 9 9 9 8 15 19 17 12 12 14 14 15 12 12 10 7 6 7 8 15 19 18 17 17 18 18 18 19 20 19 21 16 12
23 24 25 22 21 22 22 22 21 21 22 23 23 23 20 19 17 16 16 16 16 18 17 15 15 14 13 12 10 9 9 9 10 8 11 16 16 15 15 14 15 15 13 13 11 8 5 11 16 16 17 19 20 19 19 20 21 22 23 24 23 14
19 21 21 20 23 24 23 21 21 20 22 22 23 22 21 20 18 19 18 17 18 17 17 16 15 14 14 14 13 12 11 10 8 8 6 4 8 12 13 14 14 15 14 13 12 13 11 10 13 16 17 18 18 19 20 20 21 22 24 25 17 14
19 19 19 21 25 23 22 23 21 21 22 22 21 21 19 18 19 17 14 16 18 16 15 15 15 15 14 13 13 12 11 11 11 8 5 5 2 1 4 7 11 12 13 12 13 12 11 13 17 17 18 18 18 18 18 19 15 19 23 22 16 15
19 18 19 22 22 22 22 21 20 21 21 21 23 21 18 19 19 16 18 25 21 15 15 15 14 15 14 14 14 13 12 12 12 12 7 3 2 2 2 2 2 3 4 1 5 9 10 13 14 16 16 17 17 18 18 17 11 13 14 16 14 13
16 17 18 19 19 20 21 21 21 22 21 22 23 21 20 19 18 17 15 15 18 16 15 15 14 14 14 14 13 12 12 13 13 13 14 14 13 11 10 9 7 6 9 11 4 4 9 10 13 15 15 16 17 17 17 12 11 10 11 11 10 10
Wind_Direction
318 315 317 320 319 317 315 313 311 307 310 313 314 308 298 294 291 286 277 266 263 254 251 253 258 258 261 269 272 272 266 277 286 296 292 301 307 306 294 240 204 189 187 189 185 182 185 184 185 181 179 182 185 187 183 178 177 180 182 183 181 184
319 321 319 320 319 316 313 314 317 320 323 322 319 317 315 306 295 292 283 274 263 250 247 247 252 255 256 257 265 269 262 258 274 294 295 299 305 297 299 254 212 194 187 188 186 182 183 183 185 185 181 178 184 183 181 180 179 181 181 181 182 182
316 321 322 320 319 322 321 323 317 314 312 305 302 302 300 309 311 303 295 288 278 264 251 249 248 251 253 256 255 261 261 252 264 276 282 296 292 300 301 282 228 197 187 186 186 186 182 182 182 182 183 174 182 188 183 178 178 183 182 179 180 184
323 321 323 322 319 318 317 319 314 310 308 308 307 303 295 295 303 309 303 293 287 280 269 255 252 251 250 255 255 254 256 252 257 279 291 291 292 295 295 294 246 206 192 188 186 184 182 182 180 178 182 181 182 181 185 177 180 184 184 181 180 186
324 323 322 323 324 320 318 317 317 317 319 322 319 314 311 307 302 300 300 298 289 282 280 275 261 250 250 253 255 254 251 256 261 275 283 288 296 290 289 298 278 224 197 190 188 182 180 181 179 180 179 183 181 178 180 179 178 182 183 185 183 185
327 330 327 323 322 320 317 315 314 312 312 316 316 315 316 315 310 302 298 301 300 292 283 282 278 268 257 253 253 253 252 256 268 272 283 286 286 291 295 296 297 255 204 191 190 184 181 181 180 181 184 182 180 179 181 179 182 183 185 186 178 182
332 331 327 328 320 320 319 313 313 317 316 313 312 312 312 311 313 309 306 306 307 306 300 293 288 282 276 264 257 256 253 248 262 262 281 287 286 288 292 296 299 273 218 194 189 188 184 182 182 182 181 184 187 185 179 178 184 188 187 187 185 184
327 327 322 321 325 319 319 319 313 313 315 314 314 312 312 311 311 312 310 311 310 307 304 301 296 290 284 276 267 260 255 255 250 260 275 277 287 287 288 289 292 286 231 197 191 188 186 184 183 183 181 185 187 186 183 180 183 187 189 190 182 182
325 325 329 328 320 323 316 316 316 314 314 314 314 313 311 310 308 310 313 316 316 315 311 306 301 297 290 284 278 268 261 257 253 265 277 281 280 282 286 287 290 289 246 203 187 187 186 183 182 183 183 186 187 185 185 185 186 187 191 185 180 178
327 327 322 327 326 319 321 318 315 314 315 314 313 312 310 308 308 306 306 308 309 311 312 311 309 309 306 298 287 278 275 268 267 273 274 280 280 279 275 282 287 289 256 213 191 187 183 182 183 183 185 187 185 186 187 185 189 191 193 192 190 184
321 324 326 320 323 324 321 319 317 315 313 311 310 308 307 306 305 304 303 303 302 302 303 303 303 301 301 302 299 293 288 285 274 276 280 280 277 273 270 275 284 285 265 217 194 188 181 182 183 183 184 185 186 188 189 185 189 192 193 194 194 191
322 321 321 325 319 321 321 319 316 314 312 311 310 308 307 307 303 302 301 298 297 297 299 298 295 296 296 292 291 291 295 296 292 288 287 285 277 275 273 278 283 280 267 222 190 184 181 183 186 184 181 180 183 189 187 189 190 192 194 192 194 194
319 322 319 320 321 319 319 318 315 312 310 308 305 303 304 305 302 300 298 296 296 293 293 296 291 291 290 287 285 287 291 293 293 290 288 286 283 276 276 277 282 280 262 221 187 181 184 185 186 181 181 180 181 186 188 183 188 195 194 187 193 192
319 320 319 319 321 319 316 317 315 312 310 308 305 303 301 300 298 296 295 293 294 292 291 291 291 287 286 286 280 278 280 282 284 285 284 285 285 281 272 276 279 278 258 221 191 182 183 185 184 181 182 182 181 183 184 184 185 189 192 195 196 195
318 316 316 317 315 319 319 314 310 309 309 308 306 304 302 300 297 293 291 290 290 288 279 285 286 287 283 282 280 276 276 274 275 276 278 280 281 280 277 275 278 273 253 220 195 182 177 180 179 182 185 185 182 182 182 183 183 187 193 191 194 198
321 318 314 311 315 314 314 314 309 305 307 306 306 304 302 301 299 294 289 287 285 279 286 282 279 278 282 278 277 271 266 263 265 268 269 274 279 276 275 274 271 264 247 220 194 182 178 178 177 181 184 187 185 182 183 182 183 187 191 193 191 191
319 316 315 319 316 314 313 311 312 309 308 309 307 304 301 299 297 295 293 288 286 282 277 273 278 278 282 276 275 270 261 255 259 261 263 269 270 272 274 274 269 255 240 224 195 177 174 178 176 182 184 186 186 186 185 183 185 188 191 193 193 194
318 314 313 312 312 312 312 311 311 305 302 309 308 306 303 300 299 298 298 294 287 282 281 277 274 282 281 277 275 272 265 256 251 255 259 262 266 268 272 271 258 246 229 220 198 175 174 176 176 182 184 185 186 185 189 183 181 189 193 193 191 192
314 311 308 309 308 307 309 310 308 309 305 304 306 304 303 302 299 299 298 295 293 288 282 277 283 285 283 274 271 270 267 259 254 252 251 256 262 268 270 270 249 235 222 207 203 179 174 171 179 181 183 184 184 181 186 186 184 187 191 195 193 193
316 310 309 307 306 307 311 313 314 314 309 307 308 306 306 304 301 302 302 303 304 298 291 285 284 287 282 274 268 270 273 267 254 247 242 247 259 266 270 266 244 229 216 199 189 188 174 175 180 181 184 184 184 181 185 186 186 186 189 194 192 190
314 309 307 306 306 308 312 317 317 314 310 309 311 311 308 305 305 306 305 302 299 298 295 291 286 281 278 272 269 269 272 264 247 240 238 246 255 264 274 260 237 225 211 207 193 180 177 173 178 181 182 185 185 184 183 182 187 187 190 188 190 194
316 315 314 313 310 311 317 319 317 316 315 313 312 310 309 308 307 305 303 300 298 297 293 288 285 279 273 270 275 275 263 255 244 233 239 253 256 269 270 254 235 219 213 198 188 182 183 177 177 182 181 183 186 185 183 185 186 190 189 190 188 188
315 309 309 310 311 313 315 319 319 316 318 316 315 313 311 309 306 303 302 300 298 296 294 292 287 280 271 260 260 270 274 254 241 241 251 259 263 266 266 252 236 220 215 199 192 184 186 182 175 183 183 184 186 187 184 189 193 191 184 187 190 193
314 310 310 309 310 316 319 318 317 317 317 317 313 313 311 308 306 303 300 298 297 294 291 287 286 281 274 267 263 264 268 269 255 254 257 259 261 265 263 250 232 221 210 206 197 192 189 188 182 176 188 186 188 189 190 191 194 185 178 184 192 195
317 314 311 312 314 316 321 325 322 319 319 316 313 312 310 307 303 302 301 297 293 291 289 287 289 282 270 268 265 263 268 273 276 267 258 261 262 261 259 240 228 213 207 204 201 199 191 185 187 180 184 190 189 190 193 196 191 182 181 183 190 195
315 314 312 314 318 318 315 324 327 323 316 311 313 313 309 307 302 298 295 295 294 292 291 291 293 283 257 258 258 259 261 266 267 263 260 259 256 261 252 239 221 210 204 201 199 198 194 192 186 189 186 188 190 191 193 196 190 182 190 190 191 184
316 317 314 315 317 321 326 330 327 324 319 315 316 315 312 306 306 307 301 294 292 293 293 292 294 289 264 256 251 250 251 251 254 261 260 252 253 252 252 239 219 210 206 202 200 195 193 190 189 187 191 189 193 192 192 194 193 191 187 187 190 179
314 314 314 314 318 323 328 325 328 323 320 319 318 315 311 307 304 301 299 295 293 294 294 293 291 289 262 251 256 253 251 252 254 252 251 247 243 244 242 240 224 210 204 203 197 195 192 186 181 185 186 190 192 194 193 191 195 194 190 188 184 179
321 320 320 318 321 326 324 329 330 323 319 320 318 316 313 312 304 298 297 300 298 295 293 290 289 292 295 261 246 244 251 251 251 247 245 240 238 235 235 234 227 213 205 204 198 190 185 188 184 179 180 184 187 191 192 192 195 192 188 189 181 175
320 320 321 320 320 324 327 328 325 326 328 327 325 319 314 309 306 305 302 298 294 291 290 290 290 291 288 286 271 261 255 248 238 242 239 235 228 225 228 227 223 215 206 206 195 187 186 191 193 184 179 182 182 183 183 189 190 189 190 187 184 179
320 320 318 316 319 327 328 323 324 329 333 330 325 321 321 318 313 305 297 307 310 298 296 292 292 289 291 291 285 268 261 254 249 238 238 232 225 218 219 218 220 211 204 199 195 187 196 193 196 200 180 169 171 171 178 184 187 185 187 181 156 135
319 318 318 319 325 323 323 324 323 326 330 330 328 326 324 319 315 319 327 328 328 327 322 311 298 291 289 294 293 290 279 255 243 239 232 231 218 224 221 215 222 206 191 194 202 191 192 196 181 132 151 163 172 176 177 176 175 175 164 153 147 147
320 320 321 322 322 324 325 323 323 327 331 332 331 328 323 319 322 327 328 332 334 331 328 326 324 322 310 295 286 285 284 288 260 233 231 229 219 211 222 224 227 212 191 188 191 189 196 164 150 161 173 172 174 177 177 175 173 171 165 153 148 158
324 325 322 320 325 324 325 325 324 330 331 332 331 329 327 324 325 330 330 331 331 330 332 332 328 330 334 336 326 309 290 281 282 268 223 224 227 227 221 221 223 221 205 192 183 164 161 161 172 176 174 175 177 180 180 179 177 174 167 167 165 172
320 317 317 319 323 326 326 323 323 333 332 333 330 329 328 325 332 334 331 333 334 333 332 334 335 334 336 337 335 338 336 319 292 278 288 237 214 222 224 217 219 218 211 198 191 176 169 167 171 176 180 182 184 183 184 184 182 178 174 169 176 191
316 316 319 325 327 325 326 326 327 333 333 333 331 329 320 326 333 333 332 335 334 334 335 336 336 337 336 332 332 333 337 346 337 314 300 303 299 238 226 225 215 215 211 205 196 192 182 171 175 182 186 188 189 189 187 182 182 180 176 177 190 194
316 318 326 330 329 326 325 322 328 330 332 333 333 329 328 334 335 334 334 337 342 342 340 338 337 341 338 338 341 338 343 348 353 350 336 313 300 256 187 138 79 33 29 232 226 214 190 175 181 187 191 192 192 189 186 180 176 183 189 193 198 194
319 323 328 331 332 328 323 324 333 335 339 336 333 332 336 337 338 336 337 337 342 348 344 343 341 341 343 346 343 343 353 2 6 10 12 13 16 22 31 32 30 33 30 37 51 165 169 171 179 187 189 191 191 189 176 181 194 190 192 195 200 201